Tracking 20942 objects as of 13-Jul-2020
HD Live streaming from Space Station
objects crossing your sky now

AEROCUBE 4.5B

Track AEROCUBE 4.5B now!
10-day predictions
AEROCUBE 4.5B is classified as:


NORAD ID: 38768
Int'l Code: 2012-048L
Perigee: 497.6 km
Apogee: 675.3 km
Inclination: 64.7 °
Period: 96.3 minutes
Semi major axis: 6957 km
RCS: Unknown
Launch date: September 13, 2012
Source: United States (US)
Launch site: AIR FORCE WESTERN TEST RANGE (AFWTR)
aabbcc
Your satellite tracking list
Your tracking list is empty




NASA's NSSDC Master Catalog

Two Line Element Set (TLE):
1 38768U 12048L   20195.09242082  .00000203  00000-0  30065-4 0  9994
2 38768  64.6672 124.2430 0127712 123.0073 238.3390 14.95987445 45718
Source of the keplerian elements: AFSPC